Dewpoint
43 43 43 44 47 48 46 44 35 44 49 38 36 33 36 37 33 33 31 30 28 25 25 24 23 21 22 30 31 28 29 24 20 18 24 25 24 22 21 22 22 25 23 17
42 42 42 42 44 48 46 40 39 46 46 32 32 35 34 37 37 34 33 31 33 30 25 25 25 22 29 32 31 28 28 24 21 19 21 24 23 25 25 23 23 21 21 14
41 41 41 41 42 46 46 39 33 38 41 38 35 31 31 30 36 35 37 36 36 35 31 29 29 27 31 32 34 37 32 25 20 14 17 21 21 24 26 24 22 19 18 18
39 40 41 41 43 44 43 38 34 36 32 34 33 34 32 30 32 35 36 34 34 33 32 32 32 31 31 33 34 33 30 25 26 24 25 25 24 23 23 23 23 21 20 19
39 39 40 40 43 43 41 35 33 36 33 31 30 29 29 30 31 34 30 34 35 35 33 34 31 31 30 29 29 31 32 29 29 27 26 26 24 25 25 24 23 23 23 22
38 38 39 39 42 41 39 40 39 34 30 29 30 29 30 31 31 35 35 35 34 30 31 33 34 36 33 30 26 26 24 28 26 20 24 23 19 20 22 21 22 23 21 21
38 38 39 39 39 41 41 38 36 32 27 28 25 28 29 28 31 30 31 31 28 34 31 25 21 23 28 28 27 27 22 24 25 23 19 14 14 18 20 20 20 22 24 24
38 38 38 39 39 39 35 36 36 31 26 27 25 25 26 26 24 24 23 23 26 24 23 18 14 13 16 18 20 22 25 22 21 18 15 14 15 12 15 17 16 19 21 21
39 38 38 39 39 38 35 36 37 34 25 21 26 24 24 22 20 20 19 22 23 26 21 17 14 11 8 8 14 28 24 24 21 17 15 8 11 20 20 21 17 22 19 16
39 38 38 38 38 39 36 36 35 33 26 21 25 19 18 25 23 19 19 19 17 25 20 15 12 11 11 6 5 20 23 24 20 17 15 12 15 17 21 13 15 22 18 19
39 38 38 37 38 39 38 36 37 33 27 24 25 23 22 25 24 18 17 18 21 22 19 17 13 13 11 13 8 13 14 18 18 18 18 15 18 22 18 20 19 18 19 22
37 36 36 36 37 37 39 36 37 38 33 28 30 29 26 24 23 22 24 19 17 18 20 21 20 16 14 17 10 16 9 10 8 15 11 19 24 19 19 18 19 18 17 20
36 35 35 35 35 37 39 37 37 35 30 27 27 23 27 32 31 27 23 25 23 23 25 20 17 15 11 5 9 13 16 20 17 13 9 10 13 12 13 14 14 15 22 25
35 34 34 34 35 37 40 37 38 35 31 24 19 24 23 24 30 30 28 24 26 26 27 23 20 16 16 10 9 7 4 6 4 4 5 4 6 9 11 11 15 21 18 18
32 32 34 35 35 37 40 39 37 37 32 24 21 24 23 23 26 28 29 28 27 27 23 23 19 19 17 16 15 12 9 5 4 2 0 -0 0 3 5 7 10 13 17 20
32 32 33 34 36 39 36 30 35 38 36 30 22 26 24 23 23 24 24 26 27 26 23 22 22 21 18 15 9 9 10 11 11 8 9 7 7 7 8 11 13 15 17 19
31 33 32 32 36 38 32 25 30 38 38 30 22 21 21 20 25 26 25 24 25 25 22 22 20 18 20 19 15 13 10 9 9 11 12 12 14 13 14 14 15 20 20 21
33 34 34 34 36 36 34 35 38 38 33 30 21 20 18 22 22 21 26 25 25 24 22 20 18 17 20 17 13 12 13 14 14 13 13 14 14 14 14 16 17 17 19 19
35 37 38 37 33 29 29 36 38 38 32 25 23 17 14 21 20 23 25 25 19 22 21 18 17 15 15 12 9 9 10 12 13 15 14 15 15 15 15 16 17 17 19 21
36 34 29 27 31 35 32 28 28 29 30 30 22 22 18 16 15 19 21 22 18 17 15 18 19 16 15 14 14 16 19 17 15 15 16 16 17 17 17 19 19 19 20 23
32 27 26 30 31 28 22 19 20 19 18 22 20 20 18 20 18 17 22 20 20 15 16 17 18 17 26 31 31 32 32 33 33 27 22 21 21 20 20 21 22 22 23 26
31 30 30 28 23 19 16 12 13 14 14 19 21 23 23 24 25 22 22 19 19 13 22 21 19 25 26 28 28 30 31 30 29 28 28 28 27 22 21 22 24 27 30 31
33 28 21 22 15 10 11 6 10 12 17 21 23 21 24 25 27 23 22 18 15 18 21 19 23 25 26 26 27 28 29 29 28 28 28 28 27 23 24 30 35 31 28 28
24 20 11 15 9 13 13 13 14 16 18 20 22 22 22 23 22 21 16 20 22 19 18 16 21 24 24 26 29 28 27 27 28 29 28 28 32 33 32 30 29 29 29 30
22 19 11 11 15 13 14 13 15 17 20 23 22 21 22 20 19 21 21 19 18 18 15 19 21 22 23 23 25 25 26 26 27 29 28 30 32 31 29 29 29 30 30 30
24 20 15 14 14 15 13 13 15 19 22 25 23 18 17 16 20 18 16 18 14 16 20 21 21 22 23 23 25 26 26 26 28 29 30 29 30 27 27 27 27 28 28 28
19 18 20 18 16 17 16 15 17 20 23 18 18 15 13 18 16 17 21 15 17 20 22 23 22 24 25 26 26 25 25 25 26 27 27 27 26 26 27 26 26 27 27 27
Lifted_Index
15 15 15 14 13 12 12 11 11 11 10 9 9 9 9 8 7 6 6 5 4 3 2 2 3 3 4 4 3 3 3 3 3 3 4 4 4 4 3 3 3 3 3 3
15 15 15 14 14 13 12 11 10 10 10 9 9 9 9 8 7 6 6 5 4 3 3 2 3 3 4 4 4 3 3 3 3 3 3 4 3 3 4 4 3 3 3 3
15 15 15 15 14 13 12 11 10 10 10 10 9 9 9 8 7 7 6 5 5 4 3 3 3 3 4 4 4 3 3 3 3 2 3 3 3 3 4 4 4 4 4 4
15 15 15 15 14 13 12 11 11 10 10 10 9 9 9 8 8 7 6 6 5 4 4 4 4 4 4 4 4 3 3 3 2 3 3 3 4 4 4 4 4 4 4 5
15 15 15 15 14 13 12 12 11 11 11 10 10 9 9 8 8 7 6 6 6 5 5 5 4 4 4 4 4 3 3 2 2 3 3 4 4 4 4 4 5 5 5 5
15 15 15 14 13 13 12 12 12 12 11 11 10 10 9 9 8 8 7 6 6 6 6 6 5 5 5 5 4 4 3 3 3 3 3 4 4 4 4 5 5 5 5 6
15 14 14 14 14 13 13 13 13 12 12 11 11 10 10 9 8 8 8 7 7 7 7 7 6 6 6 5 5 5 4 4 4 4 4 4 4 5 5 5 6 6 6 7
14 13 13 13 13 14 14 14 14 13 13 12 12 11 10 10 9 9 8 9 9 9 8 7 6 6 6 6 6 6 6 5 5 4 4 4 5 5 6 6 6 6 7 7
13 13 12 12 13 14 14 14 14 14 14 13 13 12 11 11 10 9 9 10 10 10 8 7 6 6 6 6 6 6 6 6 6 5 4 5 6 6 6 6 6 7 7 8
12 12 12 12 12 13 14 14 14 14 14 14 13 13 12 12 11 11 11 11 11 11 9 8 7 7 7 7 7 7 6 6 6 6 5 5 6 7 6 6 6 7 8 8
12 12 12 12 12 12 13 13 14 14 13 13 13 13 12 12 12 12 12 12 12 11 10 9 9 9 9 8 8 7 7 7 7 7 6 6 7 7 7 7 7 7 8 9
12 12 12 12 12 12 12 13 13 13 13 13 13 13 13 12 12 12 12 12 12 12 11 11 11 11 10 9 9 9 8 8 8 8 8 8 8 8 8 8 8 8 9 10
12 12 12 12 12 12 12 12 12 12 12 12 12 13 13 13 13 12 12 12 12 12 12 12 12 12 12 11 10 11 11 10 10 10 10 10 9 9 9 9 10 10 11 11
12 12 12 11 11 11 11 11 12 12 12 12 12 13 13 12 12 12 12 12 12 12 12 12 13 13 13 12 12 12 12 12 11 11 11 11 10 10 10 11 12 12 12 12
12 12 11 11 11 11 11 11 12 12 12 12 12 12 12 11 11 11 12 12 12 12 12 12 12 12 12 13 13 13 13 13 12 11 12 12 12 12 12 13 13 13 13 13
11 11 11 11 11 11 11 11 12 12 11 11 11 11 10 9 9 9 10 10 10 11 11 11 11 11 11 12 13 13 12 12 12 11 12 13 13 13 13 13 13 13 13 13
11 11 11 11 11 11 11 11 11 11 10 10 10 9 8 7 7 7 7 7 8 8 9 9 9 9 10 10 11 11 11 11 12 12 12 13 13 13 13 13 13 13 13 13
10 10 10 10 10 10 10 9 9 8 8 8 7 6 6 5 5 5 5 5 6 6 6 6 7 7 7 8 8 9 10 11 12 13 13 13 13 13 13 12 12 12 12 11
10 10 10 10 10 9 9 8 7 6 6 5 5 5 4 5 5 5 5 5 5 5 4 5 5 5 5 5 6 7 9 10 11 12 12 12 12 11 11 11 11 10 10 10
10 10 10 9 8 7 7 6 5 5 4 4 4 4 4 4 5 5 5 5 5 4 5 5 5 5 5 5 6 6 6 7 8 8 8 8 8 8 8 8 8 8 8 8
10 9 8 7 6 5 5 5 5 4 4 4 4 4 4 4 5 5 5 5 5 5 5 5 5 5 5 6 6 5 5 4 5 5 5 5 5 5 6 6 6 6 6 6
8 7 6 6 5 4 4 4 4 4 4 4 4 4 4 5 5 5 5 5 5 5 5 5 5 5 5 6 5 5 5 4 3 3 3 3 4 4 4 4 4 4 3 3
6 6 5 5 4 4 4 4 4 4 3 3 4 4 5 5 5 5 5 5 5 4 4 4 4 5 6 6 6 5 5 4 3 3 3 3 3 3 3 3 2 2 2 2
5 5 4 4 4 3 3 4 4 4 4 4 4 5 5 5 6 5 5 4 4 3 3 3 5 6 7 7 6 5 5 4 4 3 3 4 3 3 3 2 2 2 2 2
4 4 4 3 3 3 3 4 4 4 4 4 5 5 6 6 5 5 4 3 3 3 3 5 6 7 7 7 6 6 5 5 4 4 4 4 3 3 2 2 2 3 3 3
4 3 3 3 3 3 3 4 4 4 4 5 5 6 6 5 5 5 4 3 4 4 6 7 8 8 8 7 7 6 6 5 5 4 4 3 3 3 2 2 3 3 4 4
3 3 3 3 3 3 3 4 4 4 5 5 6 6 6 5 5 4 4 4 5 6 7 8 8 8 8 8 8 7 6 6 5 4 4 3 3 3 2 3 3 4 4 5